Regional Weather Roundup
Issued by NWS Newport/Morehead, NC

Current Version | Previous Version | Graphics & Text | Print | Product List | Glossary Off
Versions: 1 2 3 4 5 6 7 8 9 10 11 12 13 14 15 16 17 18 19 20 21 22 23 24 25 26 27 28 29 30 31 32 33 34 35 36 37 38 39 40 41 42 43 44 45 46 47 48 49 50

000
ASUS42 KMHX 251425
RWRMHX
WEATHER ROUNDUP FOR EASTERN NORTH CAROLINA
NATIONAL WEATHER SERVICE NEWPORT/MOREHEAD CITY NC
1000 AM EDT THU AUG 25 2016

NOTE: "FAIR" INDICATES FEW OR NO CLOUDS BELOW 12,000 FEET
WITH NO SIGNIFICANT WEATHER AND/OR OBSTRUCTIONS TO VISIBILITY

NCZ015>017-031-032-045>047-102-103-251500-
NORTH COAST

CITY           SKY/WX    TMP DP  RH WIND       PRES   REMARKS
EDENTON        SUNNY     82  66  58 S5        30.19S
ELIZABETH CITY SUNNY     79  68  69 CALM      30.18S
KITTY HAWK     PTSUNNY   83  71  67 CALM      30.18R
MANTEO         MOSUNNY   79  67  66 SW3       30.19R

$$

NCZ045>047-081-094-103-104-251500-
CENTRAL COAST

CITY           SKY/WX    TMP DP  RH WIND       PRES   REMARKS
FRISCO         SUNNY     83  68  60 VRB3      30.18S

$$

NCZ095-097-098-100-101-251500-
SOUTHERN COAST

CITY           SKY/WX    TMP DP  RH WIND       PRES   REMARKS
BEAUFORT       SUNNY     82  67  60 NE9       30.18R
CEDAR ISLAND   NOT AVBL
JACKSONVILLE   MOSUNNY   82  68  62 E6        30.18R
PINEY ISLAND   NOT AVBL
WILMINGTON     SUNNY     82  71  69 NE5       30.17S


$$

NCZ011>013-027>030-043-044-078>080-089-090>093-098-251500-
COASTAL PLAIN

CITY           SKY/WX    TMP DP  RH WIND       PRES   REMARKS
AHOSKIE        SUNNY     76  71  82 S3        30.18S
CLINTON        SUNNY     80  72  76 CALM      30.19S
ELIZABETHTOWN  SUNNY     80  71  74 CALM      30.19S
GOLDSBORO      SUNNY     81  72  74 W2        30.17S
GREENVILLE     SUNNY     81  70  69 S3        30.19S
HAVELOCK       MOSUNNY   84  67  56 VRB5      30.19R
KENANSVILLE    NOT AVBL
KINSTON        SUNNY     81  68  65 CALM      30.19S
NEW BERN       SUNNY     82  67  60 E6        30.19S
RICHLANDS      SUNNY     81  70  69 VRB5      30.19S
ROCKY MOUNT    CLOUDY    75  70  84 S3        30.19S
WASHINGTON     SUNNY     80  70  70 CALM      30.18S
WHITEVILLE     SUNNY     80  72  77 N3        30.18S

$$

AMZ130-135-150-152-154-156-158-170-250-252-270-ANZ085-086-088-633-658-670-251500-
MARINE OBSERVATIONS

STATION/POSITION TIME  TEMP    WIND        PRES    WAVE   SWELL
                       AIR SEA DIR/SP/G            HT/PER HT/PER
                 (UTC) (F)     (DEG/KT/KT) (MB)    (FT/S) (FT/S)
CHESAPEAKE LIGHT NOT AVBL
64 E VA BEACH    1350   79 81  230/  2/  4 1021.7    3/10   3/10
DUCK             1400   78 78   30/  2/  3 1021.5
2 E DUCK         1311      78                N/A     3/10   2/11
OREGON INLET     1400   80 80   40/  4/  6 1022.0
13E OREGON INLT  1400      78                N/A     3/10   3/10
HATTERAS CG      1400   79 79   10/  8/  9 1021.7
DIAMOND BUOY     1350   81 84   70/  8/ 10 1021.8    3/10   3/10
CAPE LOOKOUT     1400   81      40/  9/ 11 1021.5
BEAUFORT LAB     1400   81 79   30/  6/  9 1021.3
30 SE NEW RVR IN 1408   82 84   50/  8/ 12 1021.5
30 SE NEW RVR IN 1325      84                N/A     3/ 6
27 SE WRIGHTSVLE 1408   82 83   50/ 10/ 14 1021.6
5 SE WRIGHTSVLE  1408   81 82   60/  8/ 14 1022.7
225 S CAPE HAT   1350   81 84   50/ 14/ 17 1019.3    5/ 7   3/ 7
41 SE CHARLESTON 1350   83 84   40/ 14/ 16 1019.9    3/11   2/11

$$




USA.gov is the U.S. government's official web portal to all federal, state and local government web resources and services.